[[{"header":{"parameterUnit":"m.s-1","parameterCategory":1,"la1":30.2991,"la2":30.254,"lo1":-89.0895,"lo2":-89.0444,"dy":0.0017,"dx":0.0017,"nx":28,"ny":28,"refTime":"2025-08-18T09:00:00:Z","depth":0,"parameterNumber":2,"parameterNumberName":"U-component_of_WINDS"},"data":[0,0,0,0,0,0,0,0,0,0,0,0,0,0,0,0,0,0,0,0,0,0,0,0,0,0,0,0,0,0,0,0,0,0,0,0,0,0,0,0,0,0,0,0,0,0,0,0,0,0,0,0,0,0,0,0,0,0,0.9646,0.9645,0,0.9624,0.9624,0.9623,0.9611,0.9611,0.9611,0.9611,0.9588,0.9587,0.9587,0,0,0,0,0,0,0,0,0,0,0,0,0,0.9675,0.9675,0.9646,0.9645,0.9645,0.9624,0.9624,0.9623,0.9611,0.9611,0.9611,0.9611,0.9588,0.9587,0.9587,0,0,0,0,0,0,0,0,0,0,0,0,0,0.9659,0.9675,0.9646,0.9637,0.9636,0.9624,0.9624,0.9623,0.9611,0.9611,0.9611,0.9611,0.9588,0.9587,0.9587,0.9582,0,0,0.9584,0.9583,0,0,0,0,0,0,0,0,0.966,0.9658,0.9638,0.9637,0.9636,0.962,0.9626,0.9609,0.9611,0.9621,0.9611,0.9611,0.9599,0.9597,0.9593,0.9581,0.958,0.9584,0.9583,0.9583,0.9583,0,0,0,0,0,0,0,0.9661,0.9659,0.9637,0.9638,0.9637,0.9633,0.9631,0.9622,0.961,0.962,0.9619,0.9616,0.9598,0.9594,0.9592,0.958,0.9584,0.9583,0.9582,0.9582,0.9562,0.9562,0,0,0,0,0,0,0.9664,0.966,0.9638,0.9636,0.9648,0.9633,0.963,0.9625,0.961,0.9608,0.9617,0.9616,0.9595,0.9593,0.9591,0.9585,0.9583,0.9582,0.9582,0.9562,0.9562,0.9562,0,0,0,0,0,0,0.9664,0.9662,0.9639,0.9648,0.9645,0.9632,0.9627,0.9625,0.9621,0.9608,0.9605,0.9615,0.9595,0.9593,0.9584,0.9584,0.9582,0.9581,0.9562,0.9562,0.9562,0.9572,0,0,0,0,0,0,0.9665,0.9662,0.9661,0.9648,0.9644,0.9633,0.9627,0.9625,0.9619,0.9618,0.9605,0.9603,0.9595,0.9586,0.9584,0.9583,0.958,0.9562,0.9562,0.9562,0.9571,0.9572,0.9573,0,0,0,0,0,0.9667,0.9664,0.9661,0.9658,0.9642,0.9633,0.963,0.9621,0.9619,0.9618,0.9609,0.9603,0.9584,0.9585,0.9582,0.9581,0.9562,0.9562,0.9562,0.9571,0.9572,0.9573,0,0,0,0,0,0,0.9677,0.9662,0.9658,0.9652,0.9644,0.9631,0.9628,0.9623,0.9614,0.9614,0.9603,0.96,0.9593,0.9586,0.9587,0.9576,0.9573,0.9572,0.958,0.9581,0.9581,0.9583,0.9579,0,0,0,0,0,0.9679,0.9673,0.966,0.9655,0.9651,0.964,0.9636,0.963,0.9621,0.9617,0.9608,0.9599,0.959,0.9585,0.9577,0.957,0.9567,0.9568,0.9569,0.9569,0.9569,0.9564,0.9564,0.9562,0.9562,0.9562,0,0,0.9682,0.9673,0.967,0.9657,0.965,0.9644,0.9638,0.9631,0.9626,0.9616,0.9607,0.96,0.9589,0.9582,0.9578,0.9576,0.9569,0.9569,0.957,0.9569,0.9564,0.9564,0.9565,0.9562,0.9562,0.9562,0,0,0.9685,0.9677,0.9673,0.9666,0.9655,0.9648,0.9646,0.9634,0.9629,0.9621,0.9613,0.9606,0.9593,0.9585,0.9579,0.9578,0.9573,0.9576,0.9579,0.9575,0.9575,0.9575,0.9574,0.9574,0.9576,0.9576,0.9576,0,0.969,0.968,0.9671,0.9665,0.9659,0.965,0.9645,0.9638,0.9625,0.9621,0.9619,0.9602,0.9594,0.9584,0.9584,0.958,0.9577,0.9577,0.9576,0.9576,0.9575,0.9575,0.9575,0.9576,0.9576,0.9576,0.9576,0,0.9687,0.968,0.9677,0.9665,0.9659,0.9654,0.9643,0.9638,0.9633,0.9625,0.9617,0.9607,0.9596,0.9593,0.9587,0.9582,0.9582,0.9578,0.9574,0.9576,0.9575,0.9575,0.9577,0.9577,0.9576,0.9576,0,0,0.9695,0.9678,0.9677,0.9672,0.9659,0.9653,0.9647,0.9637,0.9633,0.9624,0.9618,0.9606,0.9603,0.9596,0.9589,0.9586,0.9585,0.9582,0.9582,0.9583,0.9578,0.9581,0.9581,0.9581,0.9581,0.9581,0.9579,0,0.9696,0.9684,0.9676,0.9668,0.9661,0.9652,0.9646,0.9638,0.963,0.9623,0.9615,0.9607,0.9603,0.9599,0.9595,0.9586,0.9584,0.9586,0.9575,0.9575,0.9578,0.9581,0.9583,0.9582,0.9579,0.9579,0.9579,0,0.9695,0.9687,0.9678,0.9665,0.9662,0.9657,0.9647,0.9641,0.963,0.9625,0.9618,0.9611,0.9603,0.9601,0.959,0.9591,0.9586,0.9581,0.9581,0.9579,0.9577,0.9579,0.9582,0.9581,0.9578,0.9578,0.9578,0,0.9702,0.9688,0.9681,0.9676,0.9662,0.9659,0.9652,0.9642,0.9636,0.9627,0.9623,0.9614,0.9608,0.96,0.9591,0.959,0.958,0.9577,0.9575,0.9576,0.9574,0.9574,0.9576,0.9571,0.9571,0.9571,0.9571,0,0.9703,0.9697,0.9684,0.9679,0.9673,0.9663,0.9657,0.965,0.9641,0.9634,0.9626,0.962,0.9608,0.96,0.9592,0.9584,0.9582,0.9577,0.9575,0.9578,0.9578,0.9574,0.9574,0.9571,0.9571,0.9571,0.9571,0,0.9709,0.97,0.9691,0.9678,0.9675,0.9671,0.9659,0.9655,0.9647,0.9639,0.9636,0.9624,0.9615,0.9604,0.9591,0.9586,0.9578,0.9575,0.9582,0.9581,0.958,0.958,0.9578,0.9577,0.9574,0.9574,0.9574,0,0.971,0.9706,0.9693,0.9688,0.9682,0.9675,0.9669,0.9659,0.9653,0.9641,0.9637,0.9627,0.9619,0.9604,0.9594,0.9583,0.958,0.958,0.9579,0.9581,0.958,0.958,0.9579,0.9581,0.9581,0.9581,0.9581,0,0.9713,0.9709,0.9701,0.9692,0.9685,0.9677,0.9669,0.9666,0.9654,0.9647,0.9638,0.9631,0.9618,0.9608,0.9597,0.9589,0.9583,0.9582,0.9581,0.9583,0.9587,0.9585,0.9583,0.9582,0.9582,0.9582,0.9582,0.9582,0.9717,0.9713,0.9703,0.9694,0.9687,0.9679,0.9674,0.9666,0.9658,0.9646,0.9641,0.9631,0.962,0.9604,0.9597,0.9589,0.9587,0.9586,0.9586,0.9585,0.9586,0.9589,0.9587,0.9587,0.9587,0.9587,0.9587,0,0.9719,0.9712,0.9705,0.9694,0.9687,0.9682,0.9672,0.9667,0.9659,0.9649,0.9641,0.963,0.962,0.9609,0.9598,0.9594,0.9591,0.9591,0.9591,0.959,0.9589,0.959,0.9594,0.9594,0.9594,0.9594,0.9594,0.9594,0.972,0.9712,0.9707,0.9695,0.9688,0.9679,0.9674,0.9666,0.9659,0.9647,0.9639,0.9632,0.9622,0.961,0.9601,0.9598,0.9594,0.9595,0.9591,0.959,0.959,0.9589,0.9591,0.9595,0.9595,0.9593,0.9593,0.9593]},{"header":{"parameterUnit":"m.s-1","parameterCategory":1,"la1":30.2991,"la2":30.254,"lo1":-89.0895,"lo2":-89.0444,"dy":0.0017,"dx":0.0017,"nx":28,"ny":28,"refTime":"2025-08-18T09:00:00:Z","depth":0,"parameterNumber":3,"parameterNumberName":"V-component_of_WINDS"},"data":[0,0,0,0,0,0,0,0,0,0,0,0,0,0,0,0,0,0,0,0,0,0,0,0,0,0,0,0,0,0,0,0,0,0,0,0,0,0,0,0,0,0,0,0,0,0,0,0,0,0,0,0,0,0,0,0,0,0,3.4179,3.4179,0,3.4169,3.4168,3.4168,3.4147,3.4146,3.4146,3.4145,3.4132,3.4132,3.4132,0,0,0,0,0,0,0,0,0,0,0,0,0,3.4178,3.4178,3.4179,3.4179,3.4179,3.4169,3.4168,3.4168,3.4147,3.4146,3.4146,3.4145,3.4132,3.4132,3.4132,0,0,0,0,0,0,0,0,0,0,0,0,0,3.4174,3.4178,3.4179,3.4167,3.4166,3.4169,3.4168,3.4168,3.4147,3.4146,3.4146,3.4145,3.4132,3.4132,3.4132,3.4145,0,0,3.4132,3.4132,0,0,0,0,0,0,0,0,3.4174,3.4174,3.4169,3.4168,3.4166,3.4158,3.4163,3.416,3.4147,3.4154,3.4145,3.4145,3.4141,3.414,3.4139,3.4144,3.4143,3.4132,3.4132,3.4132,3.4132,0,0,0,0,0,0,0,3.4175,3.4175,3.4175,3.4169,3.4167,3.4161,3.416,3.4162,3.4151,3.4153,3.4152,3.4151,3.414,3.4139,3.4139,3.4143,3.4132,3.4132,3.4132,3.4132,3.4159,3.416,0,0,0,0,0,0,3.4177,3.4175,3.4175,3.4174,3.4169,3.4162,3.416,3.4161,3.4151,3.4149,3.4151,3.415,3.414,3.4139,3.4138,3.4153,3.4132,3.4132,3.4132,3.4159,3.4159,3.416,0,0,0,0,0,0,3.4177,3.4177,3.4175,3.4174,3.4174,3.4163,3.4164,3.4162,3.4161,3.415,3.4147,3.4153,3.4139,3.4138,3.4144,3.4152,3.4132,3.4132,3.4158,3.4159,3.416,3.4183,0,0,0,0,0,0,3.4177,3.4178,3.4183,3.4175,3.4174,3.4181,3.4164,3.4162,3.4161,3.4159,3.415,3.4148,3.4139,3.4144,3.4144,3.4152,3.4132,3.4157,3.4158,3.4159,3.4181,3.4185,3.4188,0,0,0,0,0,3.4177,3.4188,3.4183,3.4183,3.418,3.4182,3.4181,3.4171,3.4162,3.4167,3.416,3.4149,3.4152,3.4145,3.4144,3.4153,3.4156,3.4158,3.4159,3.418,3.4184,3.4187,0,0,0,0,0,0,3.4196,3.4187,3.4181,3.419,3.4187,3.4178,3.4184,3.4175,3.4174,3.4172,3.4158,3.4156,3.4164,3.4159,3.4151,3.4166,3.4152,3.4154,3.4168,3.4172,3.4175,3.4175,3.4132,0,0,0,0,0,3.4202,3.4205,3.4197,3.4205,3.4204,3.4195,3.4195,3.4188,3.4184,3.4182,3.4175,3.4171,3.4171,3.4171,3.4171,3.4181,3.4179,3.4187,3.419,3.4193,3.4194,3.42,3.4203,3.4165,3.4165,3.4165,0,0,3.4212,3.4208,3.421,3.4209,3.4206,3.4209,3.4194,3.4197,3.4199,3.4182,3.4187,3.4182,3.4177,3.4185,3.4188,3.4181,3.4204,3.4195,3.4197,3.4197,3.4202,3.4205,3.4208,3.4166,3.4166,3.4166,0,0,3.4233,3.423,3.4238,3.4236,3.4232,3.4226,3.4228,3.4221,3.4218,3.4223,3.421,3.4213,3.4213,3.421,3.4208,3.4231,3.4221,3.4232,3.4247,3.4253,3.4256,3.4258,3.4266,3.4269,3.4233,3.4233,3.4233,0,3.4246,3.4251,3.4242,3.4247,3.4247,3.4234,3.4241,3.4239,3.4235,3.4235,3.4228,3.423,3.4225,3.4233,3.4238,3.4238,3.4239,3.4232,3.4256,3.4259,3.4261,3.4268,3.4271,3.4234,3.4234,3.4234,3.4234,0,3.4268,3.4272,3.4278,3.4276,3.4277,3.4283,3.4275,3.4277,3.427,3.4265,3.4271,3.4265,3.4264,3.4265,3.4258,3.4272,3.4268,3.4259,3.4245,3.4266,3.4273,3.4275,3.4236,3.4236,3.4235,3.4235,0,0,3.4297,3.4293,3.4295,3.4295,3.4291,3.4293,3.4299,3.4299,3.4301,3.43,3.4304,3.4306,3.4298,3.4297,3.4289,3.4294,3.4313,3.4285,3.4284,3.429,3.4329,3.4335,3.4338,3.4307,3.4307,3.4308,3.4329,0,3.4317,3.4327,3.432,3.4332,3.4335,3.4324,3.4329,3.4328,3.4323,3.4325,3.432,3.4322,3.4312,3.4311,3.4316,3.431,3.432,3.4308,3.431,3.431,3.431,3.4342,3.4348,3.4368,3.4332,3.4332,3.4332,0,3.434,3.4341,3.4353,3.435,3.4351,3.4356,3.4357,3.4359,3.4357,3.4354,3.4354,3.4345,3.4351,3.4339,3.4346,3.4338,3.4338,3.4336,3.4337,3.4335,3.4321,3.434,3.4374,3.4377,3.4336,3.4336,3.4336,0,3.436,3.4365,3.4373,3.4373,3.4369,3.4373,3.4372,3.437,3.4371,3.4371,3.4372,3.4372,3.4372,3.4373,3.4365,3.4357,3.4373,3.436,3.437,3.437,3.4372,3.4372,3.4406,3.4375,3.4375,3.4374,3.4374,0,3.4381,3.4389,3.4382,3.4387,3.4395,3.4388,3.4397,3.4394,3.4392,3.4396,3.4387,3.439,3.4381,3.4383,3.4377,3.4384,3.4384,3.4381,3.4379,3.4382,3.4382,3.4381,3.4379,3.4375,3.4375,3.4375,3.4375,0,3.4404,3.44,3.4408,3.4405,3.4405,3.4411,3.4409,3.4413,3.4409,3.4415,3.4415,3.4409,3.4412,3.4405,3.4406,3.4402,3.4412,3.4409,3.4413,3.4412,3.4421,3.442,3.4455,3.4459,3.4426,3.4426,3.4427,0,3.4417,3.4423,3.4422,3.4425,3.4425,3.4429,3.4431,3.4424,3.4426,3.4426,3.443,3.4433,3.4434,3.4439,3.4434,3.4436,3.4431,3.4444,3.4431,3.4434,3.4431,3.443,3.4431,3.4445,3.4446,3.4446,3.4446,0,3.4441,3.444,3.4443,3.4446,3.4449,3.4451,3.4452,3.4454,3.4448,3.4451,3.4454,3.4456,3.4459,3.4461,3.4462,3.446,3.4452,3.4451,3.4453,3.4454,3.4457,3.4455,3.4419,3.4449,3.4449,3.4449,3.4449,3.4449,3.4459,3.4464,3.4465,3.4469,3.447,3.4472,3.4476,3.4474,3.4478,3.448,3.4476,3.4481,3.448,3.4481,3.448,3.4483,3.4478,3.4481,3.4482,3.4482,3.4484,3.4458,3.4484,3.4484,3.4483,3.4483,3.4483,0,3.4482,3.4483,3.4487,3.449,3.4494,3.4488,3.449,3.4493,3.4498,3.4498,3.4501,3.4506,3.4509,3.4505,3.4508,3.4511,3.4508,3.4512,3.4511,3.4511,3.4489,3.4486,3.4515,3.4515,3.4515,3.4515,3.4515,3.4515,3.4494,3.4503,3.4502,3.4511,3.4512,3.4517,3.4519,3.4521,3.4521,3.4527,3.4531,3.4529,3.4528,3.4531,3.4533,3.4532,3.4533,3.4539,3.4536,3.4515,3.4512,3.4509,3.4507,3.4539,3.4539,3.4557,3.4558,3.4558]}]]